Time,TemperatureF,DewpointF,PressureIn,WindDirection,WindDirectionDegrees,WindSpeedMPH,WindSpeedGustMPH,Humidity,HourlyPrecipIn,Conditions,Clouds,dailyrainin,SoftwareType,DateUTC
2013-05-15 00:00:00,72.0,60.5,29.83,WNW,296,1.0,6.0,67,0.00,,---,0.00,VWS V14.01,2013-05-15 04:00:00,
2013-05-15 00:01:00,72.0,60.0,29.83,WNW,295,0.0,6.0,66,0.00,,---,0.00,VWS V14.01,2013-05-15 04:01:00,
2013-05-15 00:06:00,71.9,60.4,29.83,SE,141,1.0,4.0,67,0.00,,---,0.00,VWS V14.01,2013-05-15 04:06:00,
2013-05-15 00:11:00,71.6,60.5,29.82,West,265,2.0,4.0,68,0.00,,---,0.00,VWS V14.01,2013-05-15 04:11:00,
2013-05-15 00:16:00,71.6,60.5,29.82,SSE,153,1.0,4.0,68,0.00,,---,0.00,VWS V14.01,2013-05-15 04:16:00,
2013-05-15 00:21:00,71.4,60.3,29.82,NW,322,1.0,4.0,68,0.00,,---,0.00,VWS V14.01,2013-05-15 04:21:00,
2013-05-15 00:26:00,71.5,60.4,29.82,WNW,288,2.0,4.0,68,0.00,,---,0.00,VWS V14.01,2013-05-15 04:26:00,
2013-05-15 00:30:00,71.3,60.2,29.82,NW,309,1.0,4.0,68,0.00,,---,0.00,VWS V15.00,2013-05-15 04:30:00,
2013-05-15 00:31:00,71.3,60.2,29.82,West,278,2.0,4.0,68,0.00,,---,0.00,VWS V14.01,2013-05-15 04:31:00,
2013-05-15 00:36:00,71.1,60.4,29.82,West,263,2.0,3.0,69,0.00,,---,0.00,VWS V14.01,2013-05-15 04:36:00,
2013-05-15 00:41:00,71.3,60.2,29.82,West,268,1.0,3.0,68,0.00,,---,0.00,VWS V14.01,2013-05-15 04:41:00,
2013-05-15 00:46:00,71.9,60.4,29.81,West,260,1.0,7.0,67,0.00,,---,0.00,VWS V14.01,2013-05-15 04:46:00,
2013-05-15 00:51:00,71.9,59.9,29.81,NW,314,3.0,7.0,66,0.00,,---,0.00,VWS V14.01,2013-05-15 04:51:00,
2013-05-15 00:56:00,72.2,60.2,29.81,West,280,2.0,7.0,66,0.00,,---,0.00,VWS V14.01,2013-05-15 04:56:00,
2013-05-15 01:00:00,72.3,60.3,29.81,WNW,296,4.0,7.0,66,0.00,,---,0.00,VWS V15.00,2013-05-15 05:00:00,
2013-05-15 01:01:00,72.3,60.3,29.81,WNW,288,2.0,7.0,66,0.00,,---,0.00,VWS V14.01,2013-05-15 05:01:00,
2013-05-15 01:06:00,72.2,60.2,29.81,WNW,290,2.0,6.0,66,0.00,,---,0.00,VWS V14.01,2013-05-15 05:06:00,
2013-05-15 01:11:00,72.0,60.0,29.81,WNW,283,1.0,6.0,66,0.00,,---,0.00,VWS V14.01,2013-05-15 05:11:00,
2013-05-15 01:16:00,71.9,59.9,29.81,West,280,0.0,6.0,66,0.00,,---,0.00,VWS V14.01,2013-05-15 05:16:00,
2013-05-15 01:21:00,71.9,59.9,29.81,WNW,298,2.0,6.0,66,0.00,,---,0.00,VWS V14.01,2013-05-15 05:21:00,
2013-05-15 01:26:00,72.2,60.2,29.81,WNW,298,2.0,6.0,66,0.00,,---,0.00,VWS V14.01,2013-05-15 05:26:00,
2013-05-15 01:30:00,72.1,59.7,29.81,WNW,298,2.0,7.0,65,0.00,,---,0.00,VWS V15.00,2013-05-15 05:30:00,
2013-05-15 01:31:00,72.1,60.1,29.81,NW,305,2.0,7.0,66,0.00,,---,0.00,VWS V14.01,2013-05-15 05:31:00,
2013-05-15 01:36:00,72.2,59.8,29.81,WNW,291,2.0,4.0,65,0.00,,---,0.00,VWS V14.01,2013-05-15 05:36:00,
2013-05-15 01:41:00,72.2,59.8,29.81,WNW,287,5.0,5.0,65,0.00,,---,0.00,VWS V14.01,2013-05-15 05:41:00,
2013-05-15 01:46:00,72.2,59.8,29.81,West,274,4.0,7.0,65,0.00,,---,0.00,VWS V14.01,2013-05-15 05:46:00,
2013-05-15 01:51:00,72.2,59.8,29.82,WSW,242,4.0,8.0,65,0.00,,---,0.00,VWS V14.01,2013-05-15 05:51:00,
2013-05-15 01:56:00,72.2,59.8,29.82,WNW,291,2.0,8.0,65,0.00,,---,0.00,VWS V14.01,2013-05-15 05:56:00,
2013-05-15 02:00:00,72.0,59.6,29.82,West,277,3.0,8.0,65,0.00,,---,0.00,VWS V15.00,2013-05-15 06:00:00,
2013-05-15 02:01:00,72.1,59.7,29.82,WNW,300,2.0,8.0,65,0.00,,---,0.00,VWS V14.01,2013-05-15 06:01:00,
2013-05-15 02:06:00,72.0,59.6,29.82,West,281,1.0,5.0,65,0.00,,---,0.00,VWS V14.01,2013-05-15 06:06:00,
2013-05-15 02:11:00,71.7,59.8,29.82,West,267,2.0,5.0,66,0.00,,---,0.00,VWS V14.01,2013-05-15 06:11:00,
2013-05-15 02:16:00,71.4,59.9,29.82,West,273,2.0,5.0,67,0.00,,---,0.00,VWS V14.01,2013-05-15 06:16:00,
2013-05-15 02:21:00,71.4,59.9,29.82,West,281,1.0,5.0,67,0.00,,---,0.00,VWS V14.01,2013-05-15 06:21:00,
2013-05-15 02:26:00,71.4,59.9,29.82,West,276,2.0,8.0,67,0.00,,---,0.00,VWS V14.01,2013-05-15 06:26:00,
2013-05-15 02:30:00,71.2,59.7,29.82,WNW,285,2.0,8.0,67,0.00,,---,0.00,VWS V15.00,2013-05-15 06:30:00,
2013-05-15 02:31:00,71.2,59.7,29.82,WNW,285,2.0,8.0,67,0.00,,---,0.00,VWS V14.01,2013-05-15 06:31:00,
2013-05-15 02:36:00,71.1,59.6,29.82,West,266,1.0,6.0,67,0.00,,---,0.00,VWS V14.01,2013-05-15 06:36:00,
2013-05-15 02:41:00,70.8,59.7,29.81,WNW,285,1.0,6.0,68,0.00,,---,0.00,VWS V14.01,2013-05-15 06:41:00,
2013-05-15 02:46:00,70.6,60.0,29.81,ENE,74,1.0,6.0,69,0.00,,---,0.00,VWS V14.01,2013-05-15 06:46:00,
2013-05-15 02:51:00,70.5,59.8,29.81,West,280,3.0,6.0,69,0.00,,---,0.00,VWS V14.01,2013-05-15 06:51:00,
2013-05-15 02:56:00,70.5,59.8,29.81,West,264,3.0,6.0,69,0.00,,---,0.00,VWS V14.01,2013-05-15 06:56:00,
2013-05-15 03:00:00,70.5,59.8,29.81,WNW,285,1.0,6.0,69,0.00,,---,0.00,VWS V15.00,2013-05-15 07:00:00,
2013-05-15 03:01:00,70.5,59.8,29.81,WNW,294,3.0,6.0,69,0.00,,---,0.00,VWS V14.01,2013-05-15 07:01:00,
2013-05-15 03:06:00,70.4,59.8,29.81,West,276,2.0,3.0,69,0.00,,---,0.00,VWS V14.01,2013-05-15 07:06:00,
2013-05-15 03:11:00,70.3,59.7,29.81,WNW,288,1.0,4.0,69,0.00,,---,0.00,VWS V14.01,2013-05-15 07:11:00,
2013-05-15 03:16:00,70.2,60.0,29.81,WSW,255,2.0,4.0,70,0.00,,---,0.00,VWS V14.01,2013-05-15 07:16:00,
2013-05-15 03:21:00,70.1,59.9,29.81,WNW,294,1.0,4.0,70,0.00,,---,0.00,VWS V14.01,2013-05-15 07:21:00,
2013-05-15 03:26:00,70.0,59.8,29.81,WNW,288,3.0,4.0,70,0.00,,---,0.00,VWS V14.01,2013-05-15 07:26:00,
2013-05-15 03:30:00,70.1,59.9,29.81,WNW,288,3.0,5.0,70,0.00,,---,0.00,VWS V15.00,2013-05-15 07:30:00,
2013-05-15 03:31:00,70.1,59.9,29.81,West,267,3.0,5.0,70,0.00,,---,0.00,VWS V14.01,2013-05-15 07:31:00,
2013-05-15 03:36:00,70.3,59.7,29.81,WNW,287,1.0,5.0,69,0.00,,---,0.00,VWS V14.01,2013-05-15 07:36:00,
2013-05-15 03:41:00,70.1,59.9,29.81,West,270,2.0,5.0,70,0.00,,---,0.00,VWS V14.01,2013-05-15 07:41:00,
2013-05-15 03:46:00,69.9,59.7,29.81,West,272,0.0,5.0,70,0.00,,---,0.00,VWS V14.01,2013-05-15 07:46:00,
2013-05-15 03:51:00,69.8,60.0,29.81,WNW,285,0.0,5.0,71,0.00,,---,0.00,VWS V14.01,2013-05-15 07:51:00,
2013-05-15 03:56:00,69.7,59.9,29.81,West,280,1.0,5.0,71,0.00,,---,0.00,VWS V14.01,2013-05-15 07:56:00,
2013-05-15 04:00:00,69.7,59.9,29.82,West,281,1.0,5.0,71,0.00,,---,0.00,VWS V15.00,2013-05-15 08:00:00,
2013-05-15 04:01:00,69.7,59.9,29.82,NW,319,2.0,5.0,71,0.00,,---,0.00,VWS V14.01,2013-05-15 08:01:00,
2013-05-15 04:06:00,69.7,59.9,29.82,WNW,285,1.0,2.0,71,0.00,,---,0.00,VWS V14.01,2013-05-15 08:06:00,
2013-05-15 04:11:00,69.6,59.8,29.82,West,274,1.0,3.0,71,0.00,,---,0.00,VWS V14.01,2013-05-15 08:11:00,
2013-05-15 04:16:00,69.4,59.6,29.82,WNW,291,0.0,3.0,71,0.00,,---,0.00,VWS V14.01,2013-05-15 08:16:00,
2013-05-15 04:21:00,69.4,59.6,29.82,WNW,287,2.0,3.0,71,0.00,,---,0.00,VWS V14.01,2013-05-15 08:21:00,
2013-05-15 04:26:00,69.2,59.8,29.82,West,276,0.0,3.0,72,0.00,,---,0.00,VWS V14.01,2013-05-15 08:26:00,
2013-05-15 04:30:00,68.6,59.6,29.82,West,271,0.0,3.0,73,0.00,,---,0.00,VWS V15.00,2013-05-15 08:30:00,
2013-05-15 04:31:00,68.7,59.7,29.82,West,262,1.0,3.0,73,0.00,,---,0.00,VWS V14.01,2013-05-15 08:31:00,
2013-05-15 04:36:00,68.4,59.4,29.83,WNW,283,2.0,2.0,73,0.00,,---,0.00,VWS V14.01,2013-05-15 08:36:00,
2013-05-15 04:41:00,68.5,59.5,29.82,West,281,0.0,2.0,73,0.00,,---,0.00,VWS V14.01,2013-05-15 08:41:00,
2013-05-15 04:46:00,68.2,59.6,29.82,West,266,1.0,2.0,74,0.00,,---,0.00,VWS V14.01,2013-05-15 08:46:00,
2013-05-15 04:51:00,68.3,59.7,29.82,WNW,283,0.0,2.0,74,0.00,,---,0.00,VWS V14.01,2013-05-15 08:51:00,
2013-05-15 04:56:00,68.2,59.6,29.82,West,270,1.0,2.0,74,0.00,,---,0.00,VWS V14.01,2013-05-15 08:56:00,
2013-05-15 05:00:00,68.4,59.8,29.82,WSW,248,1.0,3.0,74,0.00,,---,0.00,VWS V15.00,2013-05-15 09:00:00,
2013-05-15 05:01:00,68.3,59.7,29.82,West,272,1.0,3.0,74,0.00,,---,0.00,VWS V14.01,2013-05-15 09:01:00,
2013-05-15 05:06:00,68.3,59.7,29.82,West,266,0.0,3.0,74,0.00,,---,0.00,VWS V14.01,2013-05-15 09:06:00,
2013-05-15 05:11:00,68.2,59.6,29.82,WNW,291,2.0,4.0,74,0.00,,---,0.00,VWS V14.01,2013-05-15 09:11:00,
2013-05-15 05:16:00,68.2,59.6,29.82,NW,312,1.0,4.0,74,0.00,,---,0.00,VWS V14.01,2013-05-15 09:16:00,
2013-05-15 05:21:00,68.3,59.7,29.81,West,276,3.0,4.0,74,0.00,,---,0.00,VWS V14.01,2013-05-15 09:21:00,
2013-05-15 05:26:00,68.5,59.9,29.82,WNW,300,3.0,4.0,74,0.00,,---,0.00,VWS V14.01,2013-05-15 09:26:00,
2013-05-15 05:30:00,68.6,60.0,29.82,East,85,1.0,5.0,74,0.00,,---,0.00,VWS V15.00,2013-05-15 09:30:00,
2013-05-15 05:31:00,68.6,60.0,29.82,ESE,119,1.0,5.0,74,0.00,,---,0.00,VWS V14.01,2013-05-15 09:31:00,
2013-05-15 05:36:00,68.6,59.6,29.82,WNW,284,3.0,8.0,73,0.00,,---,0.00,VWS V14.01,2013-05-15 09:36:00,
2013-05-15 05:41:00,68.6,59.6,29.82,West,263,1.0,8.0,73,0.00,,---,0.00,VWS V14.01,2013-05-15 09:41:00,
2013-05-15 05:46:00,68.4,59.8,29.82,West,262,1.0,8.0,74,0.00,,---,0.00,VWS V14.01,2013-05-15 09:46:00,
2013-05-15 05:51:00,68.3,59.7,29.82,West,260,1.0,8.0,74,0.00,,---,0.00,VWS V14.01,2013-05-15 09:51:00,
2013-05-15 05:56:00,68.1,59.5,29.82,WNW,293,1.0,8.0,74,0.00,,---,0.00,VWS V14.01,2013-05-15 09:56:00,
2013-05-15 06:00:00,68.1,59.5,29.82,WNW,298,1.0,8.0,74,0.00,,---,0.00,VWS V15.00,2013-05-15 10:00:00,
2013-05-15 06:01:00,68.1,59.9,29.82,WNW,284,3.0,8.0,75,0.00,,---,0.00,VWS V14.01,2013-05-15 10:01:00,
2013-05-15 06:06:00,68.2,59.6,29.83,WSW,256,0.0,3.0,74,0.00,,---,0.00,VWS V14.01,2013-05-15 10:06:00,
2013-05-15 06:11:00,68.2,59.6,29.83,West,271,1.0,3.0,74,0.00,,---,0.00,VWS V14.01,2013-05-15 10:11:00,
2013-05-15 06:16:00,68.3,59.7,29.83,WNW,287,0.0,3.0,74,0.00,,---,0.00,VWS V14.01,2013-05-15 10:16:00,
2013-05-15 06:21:00,68.1,59.5,29.83,West,275,0.0,3.0,74,0.00,,---,0.00,VWS V14.01,2013-05-15 10:21:00,
2013-05-15 06:26:00,67.8,59.6,29.83,WNW,303,1.0,3.0,75,0.00,,---,0.00,VWS V14.01,2013-05-15 10:26:00,
2013-05-15 06:30:00,67.7,59.5,29.83,WNW,283,1.0,3.0,75,0.00,,---,0.00,VWS V15.00,2013-05-15 10:30:00,
2013-05-15 06:31:00,67.7,59.5,29.83,NW,304,1.0,3.0,75,0.00,,---,0.00,VWS V14.01,2013-05-15 10:31:00,
2013-05-15 06:36:00,67.7,59.5,29.83,WNW,299,0.0,2.0,75,0.00,,---,0.00,VWS V14.01,2013-05-15 10:36:00,
2013-05-15 06:41:00,67.5,59.7,29.84,NNW,345,0.0,2.0,76,0.00,,---,0.00,VWS V14.01,2013-05-15 10:41:00,
2013-05-15 06:46:00,67.2,59.8,29.84,West,276,1.0,2.0,77,0.00,,---,0.00,VWS V14.01,2013-05-15 10:46:00,
2013-05-15 06:51:00,67.5,59.7,29.84,WNW,291,1.0,6.0,76,0.00,,---,0.00,VWS V14.01,2013-05-15 10:51:00,
2013-05-15 06:56:00,67.4,59.6,29.84,WNW,293,2.0,6.0,76,0.00,,---,0.00,VWS V14.01,2013-05-15 10:56:00,
2013-05-15 07:00:00,67.5,59.7,29.84,West,259,1.0,6.0,76,0.00,,---,0.00,VWS V15.00,2013-05-15 11:00:00,
2013-05-15 07:01:00,67.5,59.7,29.84,West,259,1.0,6.0,76,0.00,,---,0.00,VWS V14.01,2013-05-15 11:01:00,
2013-05-15 07:06:00,67.8,59.6,29.85,West,281,3.0,5.0,75,0.00,,---,0.00,VWS V14.01,2013-05-15 11:06:00,
2013-05-15 07:12:00,68.1,59.9,29.85,WNW,301,2.0,5.0,75,0.00,,---,0.00,VWS V14.01,2013-05-15 11:12:00,
2013-05-15 07:17:00,68.2,60.0,29.85,NNW,327,2.0,5.0,75,0.00,,---,0.00,VWS V14.01,2013-05-15 11:17:00,
2013-05-15 07:22:00,68.3,59.7,29.85,WNW,285,1.0,5.0,74,0.00,,---,0.00,VWS V14.01,2013-05-15 11:22:00,
2013-05-15 07:27:00,68.4,59.8,29.85,WNW,288,1.0,5.0,74,0.00,,---,0.00,VWS V14.01,2013-05-15 11:27:00,
2013-05-15 07:30:00,68.5,59.9,29.85,West,259,4.0,5.0,74,0.00,,---,0.00,VWS V15.00,2013-05-15 11:30:00,
2013-05-15 07:32:00,68.6,60.0,29.85,West,271,1.0,4.0,74,0.00,,---,0.00,VWS V14.01,2013-05-15 11:32:00,
2013-05-15 07:38:00,69.0,60.0,29.85,WNW,290,1.0,4.0,73,0.00,,---,0.00,VWS V14.01,2013-05-15 11:38:00,
2013-05-15 07:43:00,69.4,60.0,29.86,WNW,294,1.0,4.0,72,0.00,,---,0.00,VWS V14.01,2013-05-15 11:43:00,
2013-05-15 07:48:00,69.9,60.1,29.86,WSW,250,2.0,4.0,71,0.00,,---,0.00,VWS V14.01,2013-05-15 11:48:00,
2013-05-15 07:54:00,70.3,60.9,29.86,West,268,1.0,4.0,72,0.00,,---,0.00,VWS V14.01,2013-05-15 11:54:00,
2013-05-15 07:59:00,70.6,60.3,29.86,West,280,1.0,4.0,70,0.00,,---,0.00,VWS V14.01,2013-05-15 11:59:00,
2013-05-15 08:00:00,70.8,60.9,29.86,West,278,0.0,4.0,71,0.00,,---,0.00,VWS V15.00,2013-05-15 12:00:00,
2013-05-15 08:04:00,71.0,61.1,29.86,SW,225,0.0,2.0,71,0.00,,---,0.00,VWS V14.01,2013-05-15 12:04:00,
2013-05-15 08:10:00,71.2,60.5,29.86,WNW,283,4.0,8.0,69,0.00,,---,0.00,VWS V14.01,2013-05-15 12:10:00,
2013-05-15 08:15:00,71.5,60.4,29.86,NW,309,5.0,8.0,68,0.00,,---,0.00,VWS V14.01,2013-05-15 12:15:00,
2013-05-15 08:20:00,72.0,60.9,29.86,West,277,1.0,8.0,68,0.00,,---,0.00,VWS V14.01,2013-05-15 12:20:00,
2013-05-15 08:26:00,72.2,60.7,29.86,WNW,302,1.0,8.0,67,0.00,,---,0.00,VWS V14.01,2013-05-15 12:26:00,
2013-05-15 08:30:00,72.4,60.8,29.86,WNW,285,1.0,8.0,67,0.00,,---,0.00,VWS V15.00,2013-05-15 12:30:00,
2013-05-15 08:31:00,72.4,60.8,29.86,NW,314,1.0,8.0,67,0.00,,---,0.00,VWS V14.01,2013-05-15 12:31:00,
2013-05-15 08:36:00,72.5,60.5,29.86,West,280,2.0,10.0,66,0.00,,---,0.00,VWS V14.01,2013-05-15 12:36:00,
2013-05-15 08:41:00,72.7,61.1,29.87,NW,319,2.0,10.0,67,0.00,,---,0.00,VWS V14.01,2013-05-15 12:41:00,
2013-05-15 08:46:00,72.9,60.9,29.87,West,280,2.0,10.0,66,0.00,,---,0.00,VWS V14.01,2013-05-15 12:46:00,
2013-05-15 08:51:00,73.2,61.2,29.87,West,277,2.0,10.0,66,0.00,,---,0.00,VWS V14.01,2013-05-15 12:51:00,
2013-05-15 08:56:00,73.5,60.6,29.87,WNW,282,1.0,10.0,64,0.00,,---,0.00,VWS V14.01,2013-05-15 12:56:00,
2013-05-15 09:00:00,73.8,60.9,29.87,West,276,1.0,10.0,64,0.00,,---,0.00,VWS V15.00,2013-05-15 13:00:00,
2013-05-15 09:01:00,73.8,60.9,29.87,West,277,2.0,10.0,64,0.00,,---,0.00,VWS V14.01,2013-05-15 13:01:00,
2013-05-15 09:06:00,74.2,61.2,29.87,SSE,150,1.0,3.0,64,0.00,,---,0.00,VWS V14.01,2013-05-15 13:06:00,
2013-05-15 09:12:00,74.7,61.3,29.87,WSW,258,4.0,4.0,63,0.00,,---,0.00,VWS V14.01,2013-05-15 13:12:00,
2013-05-15 09:17:00,74.9,61.0,29.87,West,278,3.0,5.0,62,0.00,,---,0.00,VWS V14.01,2013-05-15 13:17:00,
2013-05-15 09:22:00,75.1,60.8,29.87,NW,304,1.0,5.0,61,0.00,,---,0.00,VWS V14.01,2013-05-15 13:22:00,
2013-05-15 09:27:00,75.5,61.1,29.87,West,269,3.0,5.0,61,0.00,,---,0.00,VWS V14.01,2013-05-15 13:27:00,
2013-05-15 09:30:00,75.8,60.9,29.87,West,267,1.0,10.0,60,0.00,,---,0.00,VWS V15.00,2013-05-15 13:30:00,
2013-05-15 09:33:00,75.9,61.5,29.87,West,270,5.0,5.0,61,0.00,,---,0.00,VWS V14.01,2013-05-15 13:33:00,
2013-05-15 09:38:00,76.1,60.8,29.87,West,281,5.0,6.0,59,0.00,,---,0.00,VWS V14.01,2013-05-15 13:38:00,
2013-05-15 09:43:00,76.5,61.1,29.87,WNW,293,4.0,7.0,59,0.00,,---,0.00,VWS V14.01,2013-05-15 13:43:00,
2013-05-15 09:48:00,76.7,60.3,29.87,West,268,2.0,8.0,57,0.00,,---,0.00,VWS V14.01,2013-05-15 13:48:00,
2013-05-15 09:53:00,77.1,60.2,29.87,WNW,288,3.0,8.0,56,0.00,,---,0.00,VWS V14.01,2013-05-15 13:53:00,
2013-05-15 09:58:00,77.4,61.5,29.87,WSW,255,7.0,8.0,58,0.00,,---,0.00,VWS V14.01,2013-05-15 13:58:00,
2013-05-15 10:00:00,77.5,60.6,29.87,West,267,5.0,8.0,56,0.00,,---,0.00,VWS V15.00,2013-05-15 14:00:00,
2013-05-15 10:04:00,77.5,60.1,29.87,WNW,297,5.0,11.0,55,0.00,,---,0.00,VWS V14.01,2013-05-15 14:04:00,
2013-05-15 10:09:00,77.8,60.4,29.87,West,278,6.0,11.0,55,0.00,,---,0.00,VWS V14.01,2013-05-15 14:09:00,
2013-05-15 10:14:00,78.0,60.5,29.86,West,266,1.0,11.0,55,0.00,,---,0.00,VWS V14.01,2013-05-15 14:14:00,
2013-05-15 10:19:00,78.2,60.7,29.86,WSW,254,3.0,11.0,55,0.00,,---,0.00,VWS V14.01,2013-05-15 14:19:00,
2013-05-15 10:24:00,78.6,61.6,29.86,WSW,240,1.0,11.0,56,0.00,,---,0.00,VWS V14.01,2013-05-15 14:24:00,
2013-05-15 10:29:00,79.0,61.0,29.86,West,270,3.0,11.0,54,0.00,,---,0.00,VWS V14.01,2013-05-15 14:29:00,
2013-05-15 10:30:00,79.0,61.0,29.86,West,267,3.0,11.0,54,0.00,,---,0.00,VWS V15.00,2013-05-15 14:30:00,
2013-05-15 10:34:00,79.2,61.1,29.86,West,264,8.0,8.0,54,0.00,,---,0.00,VWS V14.01,2013-05-15 14:34:00,
2013-05-15 10:39:00,79.4,60.8,29.86,West,264,4.0,9.0,53,0.00,,---,0.00,VWS V14.01,2013-05-15 14:39:00,
2013-05-15 10:44:00,79.4,60.8,29.86,West,271,4.0,11.0,53,0.00,,---,0.00,VWS V14.01,2013-05-15 14:44:00,
2013-05-15 10:50:00,79.5,60.3,29.86,WNW,283,4.0,11.0,52,0.00,,---,0.00,VWS V14.01,2013-05-15 14:50:00,
2013-05-15 10:55:00,79.6,61.0,29.86,WNW,300,5.0,11.0,53,0.00,,---,0.00,VWS V14.01,2013-05-15 14:55:00,
2013-05-15 11:00:00,80.1,60.9,29.86,West,264,5.0,11.0,52,0.00,,---,0.00,VWS V15.00,2013-05-15 15:00:00,
2013-05-15 11:01:00,80.1,61.4,29.86,West,269,2.0,11.0,53,0.00,,---,0.00,VWS V14.01,2013-05-15 15:01:00,
2013-05-15 11:06:00,80.3,60.5,29.86,WNW,293,5.0,9.0,51,0.00,,---,0.00,VWS V14.01,2013-05-15 15:06:00,
2013-05-15 11:11:00,80.3,60.5,29.86,West,277,4.0,13.0,51,0.00,,---,0.00,VWS V14.01,2013-05-15 15:11:00,
2013-05-15 11:16:00,80.6,60.8,29.86,West,270,5.0,13.0,51,0.00,,---,0.00,VWS V14.01,2013-05-15 15:16:00,
2013-05-15 11:22:00,80.8,61.0,29.86,WNW,288,2.0,13.0,51,0.00,,---,0.00,VWS V14.01,2013-05-15 15:22:00,
2013-05-15 11:27:00,81.2,61.9,29.86,WNW,287,2.0,13.0,52,0.00,,---,0.00,VWS V14.01,2013-05-15 15:27:00,
2013-05-15 11:30:00,81.4,61.0,29.86,WNW,288,3.0,13.0,50,0.00,,---,0.00,VWS V15.00,2013-05-15 15:30:00,
2013-05-15 11:32:00,81.4,61.0,29.86,NW,308,3.0,3.0,50,0.00,,---,0.00,VWS V14.01,2013-05-15 15:32:00,
2013-05-15 11:37:00,81.6,61.7,29.86,WSW,253,2.0,8.0,51,0.00,,---,0.00,VWS V14.01,2013-05-15 15:37:00,
2013-05-15 11:42:00,82.1,61.6,29.86,West,259,1.0,8.0,50,0.00,,---,0.00,VWS V14.01,2013-05-15 15:42:00,
2013-05-15 11:47:00,82.1,61.6,29.86,WNW,284,1.0,8.0,50,0.00,,---,0.00,VWS V14.01,2013-05-15 15:47:00,
2013-05-15 11:53:00,82.1,61.6,29.86,WNW,298,3.0,8.0,50,0.00,,---,0.00,VWS V14.01,2013-05-15 15:53:00,
2013-05-15 11:58:00,82.3,61.2,29.87,North,351,3.0,8.0,49,0.00,,---,0.00,VWS V14.01,2013-05-15 15:58:00,
2013-05-15 12:00:00,82.6,63.2,29.86,WNW,283,2.0,8.0,52,0.00,,---,0.00,VWS V15.00,2013-05-15 16:00:00,
2013-05-15 12:03:00,82.7,62.8,29.87,West,278,1.0,4.0,51,0.00,,---,0.00,VWS V14.01,2013-05-15 16:03:00,
2013-05-15 12:08:00,83.0,63.6,29.87,West,259,3.0,4.0,52,0.00,,---,0.00,VWS V14.01,2013-05-15 16:08:00,
2013-05-15 12:13:00,83.0,63.0,29.87,WNW,287,2.0,5.0,51,0.00,,---,0.00,VWS V14.01,2013-05-15 16:13:00,
2013-05-15 12:18:00,83.2,62.1,29.86,WSW,243,1.0,5.0,49,0.00,,---,0.00,VWS V14.01,2013-05-15 16:18:00,
2013-05-15 12:24:00,83.1,62.5,29.86,West,277,1.0,5.0,50,0.00,,---,0.00,VWS V14.01,2013-05-15 16:24:00,
2013-05-15 12:29:00,83.5,62.9,29.86,WNW,284,2.0,5.0,50,0.00,,---,0.00,VWS V14.01,2013-05-15 16:29:00,
2013-05-15 12:30:00,83.5,62.3,29.86,NNW,344,4.0,11.0,49,0.00,,---,0.00,VWS V15.00,2013-05-15 16:30:00,
2013-05-15 12:34:00,83.4,62.3,29.86,WNW,284,2.0,5.0,49,0.00,,---,0.00,VWS V14.01,2013-05-15 16:34:00,
2013-05-15 12:39:00,83.3,62.2,29.86,WNW,284,4.0,7.0,49,0.00,,---,0.00,VWS V14.01,2013-05-15 16:39:00,
2013-05-15 12:44:00,83.4,61.7,29.86,West,269,1.0,7.0,48,0.00,,---,0.00,VWS V14.01,2013-05-15 16:44:00,
2013-05-15 12:50:00,83.7,62.5,29.86,WNW,301,4.0,7.0,49,0.00,,---,0.00,VWS V14.01,2013-05-15 16:50:00,
2013-05-15 12:55:00,83.7,62.0,29.85,West,264,4.0,9.0,48,0.00,,---,0.00,VWS V14.01,2013-05-15 16:55:00,
2013-05-15 13:00:00,83.9,63.8,29.85,SW,226,0.0,9.0,51,0.00,,---,0.00,VWS V14.01,2013-05-15 17:00:00,
2013-05-15 13:05:00,84.1,62.9,29.85,West,276,2.0,7.0,49,0.00,,---,0.00,VWS V14.01,2013-05-15 17:05:00,
2013-05-15 13:10:00,83.8,61.4,29.85,SE,131,2.0,10.0,47,0.00,,---,0.00,VWS V14.01,2013-05-15 17:10:00,
2013-05-15 13:16:00,83.9,60.9,29.85,WNW,302,4.0,12.0,46,0.00,,---,0.00,VWS V14.01,2013-05-15 17:16:00,
2013-05-15 13:21:00,84.3,63.7,29.85,SW,232,0.0,12.0,50,0.00,,---,0.00,VWS V14.01,2013-05-15 17:21:00,
2013-05-15 13:26:00,84.8,63.5,29.85,NNW,332,3.0,12.0,49,0.00,,---,0.00,VWS V14.01,2013-05-15 17:26:00,
2013-05-15 13:30:00,85.0,62.5,29.85,NW,314,2.0,12.0,47,0.00,,---,0.00,VWS V15.00,2013-05-15 17:30:00,
2013-05-15 13:31:00,85.0,63.1,29.85,NW,309,3.0,12.0,48,0.00,,---,0.00,VWS V14.01,2013-05-15 17:31:00,
2013-05-15 13:36:00,85.3,62.2,29.85,WNW,286,6.0,6.0,46,0.00,,---,0.00,VWS V14.01,2013-05-15 17:36:00,
2013-05-15 13:41:00,85.1,62.0,29.85,WNW,285,1.0,7.0,46,0.00,,---,0.00,VWS V14.01,2013-05-15 17:41:00,
2013-05-15 13:46:00,85.4,61.7,29.84,West,275,9.0,9.0,45,0.00,,---,0.00,VWS V14.01,2013-05-15 17:46:00,
2013-05-15 13:51:00,85.1,63.2,29.84,WNW,293,3.0,10.0,48,0.00,,---,0.00,VWS V14.01,2013-05-15 17:51:00,
2013-05-15 13:57:00,85.4,61.7,29.84,WNW,284,6.0,10.0,45,0.00,,---,0.00,VWS V14.01,2013-05-15 17:57:00,
2013-05-15 14:00:00,85.4,61.7,29.84,West,266,5.0,10.0,45,0.00,,---,0.00,VWS V15.00,2013-05-15 18:00:00,
2013-05-15 14:02:00,85.4,61.7,29.84,ENE,58,2.0,5.0,45,0.00,,---,0.00,VWS V14.01,2013-05-15 18:02:00,
2013-05-15 14:08:00,85.6,61.8,29.84,SW,226,2.0,6.0,45,0.00,,---,0.00,VWS V14.01,2013-05-15 18:08:00,
2013-05-15 14:13:00,85.8,62.0,29.83,NW,305,3.0,6.0,45,0.00,,---,0.00,VWS V14.01,2013-05-15 18:13:00,
2013-05-15 14:18:00,85.6,61.8,29.83,West,278,3.0,7.0,45,0.00,,---,0.00,VWS V14.01,2013-05-15 18:18:00,
2013-05-15 14:23:00,86.1,65.3,29.83,WSW,255,2.0,7.0,50,0.00,,---,0.00,VWS V14.01,2013-05-15 18:23:00,
2013-05-15 14:28:00,86.6,64.0,29.83,WNW,287,2.0,7.0,47,0.00,,---,0.00,VWS V14.01,2013-05-15 18:28:00,
2013-05-15 14:30:00,86.8,62.3,29.83,WSW,257,3.0,7.0,44,0.00,,---,0.00,VWS V15.00,2013-05-15 18:30:00,
2013-05-15 14:33:00,86.8,62.3,29.83,NW,311,6.0,7.0,44,0.00,,---,0.00,VWS V14.01,2013-05-15 18:33:00,
2013-05-15 14:38:00,86.2,61.8,29.83,West,281,4.0,8.0,44,0.00,,---,0.00,VWS V14.01,2013-05-15 18:38:00,
2013-05-15 14:43:00,86.4,63.2,29.83,West,277,2.0,8.0,46,0.00,,---,0.00,VWS V14.01,2013-05-15 18:43:00,
2013-05-15 14:49:00,86.7,62.8,29.82,West,277,3.0,8.0,45,0.00,,---,0.00,VWS V14.01,2013-05-15 18:49:00,
2013-05-15 14:54:00,86.8,62.3,29.82,West,280,2.0,8.0,44,0.00,,---,0.00,VWS V14.01,2013-05-15 18:54:00,
2013-05-15 14:59:00,86.8,62.9,29.82,West,262,2.0,8.0,45,0.00,,---,0.00,VWS V14.01,2013-05-15 18:59:00,
2013-05-15 15:00:00,87.0,63.1,29.82,SW,231,6.0,8.0,45,0.00,,---,0.00,VWS V15.00,2013-05-15 19:00:00,
2013-05-15 15:04:00,87.0,61.8,29.82,WNW,293,2.0,6.0,43,0.00,,---,0.00,VWS V14.01,2013-05-15 19:04:00,
2013-05-15 15:09:00,87.1,63.8,29.82,East,95,2.0,6.0,46,0.00,,---,0.00,VWS V14.01,2013-05-15 19:09:00,
2013-05-15 15:14:00,87.6,62.4,29.82,WSW,250,3.0,6.0,43,0.00,,---,0.00,VWS V14.01,2013-05-15 19:14:00,
2013-05-15 15:19:00,87.7,63.1,29.82,North,6,1.0,8.0,44,0.00,,---,0.00,VWS V14.01,2013-05-15 19:19:00,
2013-05-15 15:25:00,87.8,61.9,29.82,WSW,246,1.0,9.0,42,0.00,,---,0.00,VWS V14.01,2013-05-15 19:25:00,
2013-05-15 15:30:00,87.5,63.6,29.82,WSW,256,2.0,9.0,45,0.00,,---,0.00,VWS V14.01,2013-05-15 19:30:00,
2013-05-15 15:35:00,87.6,62.4,29.81,WNW,302,2.0,3.0,43,0.00,,---,0.00,VWS V14.01,2013-05-15 19:35:00,
2013-05-15 15:40:00,87.5,62.9,29.81,WNW,288,2.0,6.0,44,0.00,,---,0.00,VWS V14.01,2013-05-15 19:40:00,
2013-05-15 15:46:00,87.3,59.3,29.81,West,264,2.0,6.0,39,0.00,,---,0.00,VWS V14.01,2013-05-15 19:46:00,
2013-05-15 15:51:00,87.2,63.3,29.81,WSW,246,3.0,6.0,45,0.00,,---,0.00,VWS V14.01,2013-05-15 19:51:00,
2013-05-15 15:56:00,87.2,60.7,29.80,West,276,1.0,6.0,41,0.00,,---,0.00,VWS V14.01,2013-05-15 19:56:00,
2013-05-15 16:00:00,87.3,60.8,29.80,West,273,1.0,6.0,41,0.00,,---,0.00,VWS V15.00,2013-05-15 20:00:00,
2013-05-15 16:01:00,87.3,60.8,29.80,WSW,257,2.0,6.0,41,0.00,,---,0.00,VWS V14.01,2013-05-15 20:01:00,
2013-05-15 16:07:00,87.3,60.8,29.80,NW,304,1.0,4.0,41,0.00,,---,0.00,VWS V14.01,2013-05-15 20:07:00,
2013-05-15 16:12:00,87.1,61.2,29.80,West,270,2.0,5.0,42,0.00,,---,0.00,VWS V14.01,2013-05-15 20:12:00,
2013-05-15 16:17:00,87.0,61.8,29.79,WNW,297,3.0,7.0,43,0.00,,---,0.00,VWS V14.01,2013-05-15 20:17:00,
2013-05-15 16:22:00,87.1,61.9,29.79,West,279,2.0,7.0,43,0.00,,---,0.00,VWS V14.01,2013-05-15 20:22:00,
2013-05-15 16:27:00,87.3,60.8,29.79,WNW,288,1.0,7.0,41,0.00,,---,0.00,VWS V14.01,2013-05-15 20:27:00,
2013-05-15 16:30:00,87.0,60.5,29.79,SW,222,2.0,8.0,41,0.00,,---,0.00,VWS V15.00,2013-05-15 20:30:00,
2013-05-15 16:32:00,87.0,61.8,29.79,SSW,208,5.0,6.0,43,0.00,,---,0.00,VWS V14.01,2013-05-15 20:32:00,
2013-05-15 16:37:00,86.8,62.3,29.79,NNW,338,2.0,7.0,44,0.00,,---,0.00,VWS V14.01,2013-05-15 20:37:00,
2013-05-15 16:42:00,86.5,62.0,29.79,West,274,6.0,7.0,44,0.00,,---,0.00,VWS V14.01,2013-05-15 20:42:00,
2013-05-15 16:47:00,86.3,62.5,29.79,NE,34,4.0,7.0,45,0.00,,---,0.00,VWS V14.01,2013-05-15 20:47:00,
2013-05-15 16:52:00,86.0,62.2,29.78,South,172,1.0,8.0,45,0.00,,---,0.00,VWS V14.01,2013-05-15 20:52:00,
2013-05-15 16:57:00,85.8,62.0,29.79,WSW,248,2.0,8.0,45,0.00,,---,0.00,VWS V14.01,2013-05-15 20:57:00,
2013-05-15 17:00:00,85.6,61.2,29.79,NW,309,1.0,8.0,44,0.00,,---,0.00,VWS V15.00,2013-05-15 21:00:00,
2013-05-15 17:02:00,85.6,61.2,29.79,NNW,328,1.0,2.0,44,0.00,,---,0.00,VWS V14.01,2013-05-15 21:02:00,
2013-05-15 17:07:00,85.5,61.1,29.79,SW,225,3.0,4.0,44,0.00,,---,0.00,VWS V14.01,2013-05-15 21:07:00,
2013-05-15 17:13:00,85.5,59.1,29.79,West,269,3.0,7.0,41,0.00,,---,0.00,VWS V14.01,2013-05-15 21:13:00,
2013-05-15 17:18:00,85.3,60.9,29.79,WSW,257,1.0,7.0,44,0.00,,---,0.00,VWS V14.01,2013-05-15 21:18:00,
2013-05-15 17:24:00,85.5,61.1,29.79,WSW,242,3.0,7.0,44,0.00,,---,0.00,VWS V14.01,2013-05-15 21:24:00,
2013-05-15 17:29:00,85.5,61.8,29.78,West,280,3.0,7.0,45,0.00,,---,0.00,VWS V14.01,2013-05-15 21:29:00,
2013-05-15 17:30:00,85.4,60.4,29.78,WNW,284,2.0,7.0,43,0.00,,---,0.00,VWS V15.00,2013-05-15 21:30:00,
2013-05-15 17:34:00,85.4,61.0,29.79,WNW,295,3.0,10.0,44,0.00,,---,0.00,VWS V14.01,2013-05-15 21:34:00,
2013-05-15 17:39:00,84.9,60.6,29.78,SSW,194,2.0,10.0,44,0.00,,---,0.00,VWS V14.01,2013-05-15 21:39:00,
2013-05-15 17:44:00,84.7,59.8,29.78,East,93,6.0,11.0,43,0.00,,---,0.00,VWS V14.01,2013-05-15 21:44:00,
2013-05-15 17:49:00,84.5,58.9,29.79,WNW,303,1.0,11.0,42,0.00,,---,0.00,VWS V14.01,2013-05-15 21:49:00,
2013-05-15 17:54:00,84.6,59.0,29.78,WNW,283,1.0,11.0,42,0.00,,---,0.00,VWS V14.01,2013-05-15 21:54:00,
2013-05-15 18:00:00,84.5,59.6,29.78,SW,235,1.0,11.0,43,0.00,,---,0.00,VWS V14.01,2013-05-15 22:00:00,
2013-05-15 18:06:00,84.5,59.6,29.78,WNW,283,1.0,4.0,43,0.00,,---,0.00,VWS V14.01,2013-05-15 22:06:00,
2013-05-15 18:11:00,84.5,59.6,29.78,ESE,105,7.0,7.0,43,0.00,,---,0.00,VWS V14.01,2013-05-15 22:11:00,
2013-05-15 18:16:00,84.0,59.1,29.78,WNW,297,4.0,9.0,43,0.00,,---,0.00,VWS V14.01,2013-05-15 22:16:00,
2013-05-15 18:22:00,83.9,59.7,29.77,West,277,4.0,9.0,44,0.00,,---,0.00,VWS V14.01,2013-05-15 22:22:00,
2013-05-15 18:27:00,83.8,59.6,29.78,West,281,1.0,9.0,44,0.00,,---,0.00,VWS V14.01,2013-05-15 22:27:00,
2013-05-15 18:30:00,83.9,60.3,29.78,WNW,290,2.0,9.0,45,0.00,,---,0.00,VWS V15.00,2013-05-15 22:30:00,
2013-05-15 18:32:00,83.9,60.3,29.78,WNW,295,1.0,2.0,45,0.00,,---,0.00,VWS V14.01,2013-05-15 22:32:00,
2013-05-15 18:37:00,83.7,59.5,29.78,WNW,297,2.0,6.0,44,0.00,,---,0.00,VWS V14.01,2013-05-15 22:37:00,
2013-05-15 18:43:00,83.5,58.7,29.78,West,276,1.0,7.0,43,0.00,,---,0.00,VWS V14.01,2013-05-15 22:43:00,
2013-05-15 18:48:00,83.4,58.6,29.78,West,269,2.0,7.0,43,0.00,,---,0.00,VWS V14.01,2013-05-15 22:48:00,
2013-05-15 18:53:00,83.2,58.4,29.78,WSW,256,1.0,7.0,43,0.00,,---,0.00,VWS V14.01,2013-05-15 22:53:00,
2013-05-15 18:58:00,83.0,58.2,29.78,West,273,1.0,7.0,43,0.00,,---,0.00,VWS V14.01,2013-05-15 22:58:00,
2013-05-15 19:00:00,82.9,59.4,29.78,West,279,1.0,7.0,45,0.00,,---,0.00,VWS V15.00,2013-05-15 23:00:00,
2013-05-15 19:04:00,82.8,59.3,29.78,NW,304,1.0,3.0,45,0.00,,---,0.00,VWS V14.01,2013-05-15 23:04:00,
2013-05-15 19:09:00,82.7,58.6,29.78,WSW,257,1.0,4.0,44,0.00,,---,0.00,VWS V14.01,2013-05-15 23:09:00,
2013-05-15 19:14:00,82.6,59.1,29.78,WSW,242,1.0,5.0,45,0.00,,---,0.00,VWS V14.01,2013-05-15 23:14:00,
2013-05-15 19:19:00,82.4,58.3,29.78,WNW,288,2.0,5.0,44,0.00,,---,0.00,VWS V14.01,2013-05-15 23:19:00,
2013-05-15 19:24:00,82.2,58.8,29.78,West,266,3.0,6.0,45,0.00,,---,0.00,VWS V14.01,2013-05-15 23:24:00,
2013-05-15 19:29:00,82.0,58.0,29.78,WNW,298,2.0,6.0,44,0.00,,---,0.00,VWS V14.01,2013-05-15 23:29:00,
2013-05-15 19:30:00,81.9,59.1,29.78,WNW,295,2.0,6.0,46,0.00,,---,0.00,VWS V15.00,2013-05-15 23:30:00,
2013-05-15 19:34:00,81.7,58.3,29.78,West,267,0.0,4.0,45,0.00,,---,0.00,VWS V14.01,2013-05-15 23:34:00,
2013-05-15 19:39:00,81.5,58.1,29.78,West,278,2.0,4.0,45,0.00,,---,0.00,VWS V14.01,2013-05-15 23:39:00,
2013-05-15 19:45:00,81.5,57.5,29.78,WNW,282,1.0,8.0,44,0.00,,---,0.00,VWS V14.01,2013-05-15 23:45:00,
2013-05-15 19:50:00,81.2,58.5,29.79,West,266,0.0,8.0,46,0.00,,---,0.00,VWS V14.01,2013-05-15 23:50:00,
2013-05-15 19:55:00,80.9,58.8,29.79,SSW,201,0.0,8.0,47,0.00,,---,0.00,VWS V14.01,2013-05-15 23:55:00,
2013-05-15 20:00:00,80.7,57.4,29.79,WNW,297,3.0,8.0,45,0.00,,---,0.00,VWS V14.01,2013-05-16 00:00:00,
2013-05-15 20:06:00,80.8,57.5,29.79,WNW,302,2.0,4.0,45,0.00,,---,0.00,VWS V14.01,2013-05-16 00:06:00,
2013-05-15 20:11:00,80.5,57.8,29.79,West,278,2.0,4.0,46,0.00,,---,0.00,VWS V14.01,2013-05-16 00:11:00,
2013-05-15 20:17:00,80.1,58.1,29.79,West,280,1.0,4.0,47,0.00,,---,0.00,VWS V14.01,2013-05-16 00:17:00,
2013-05-15 20:22:00,79.9,57.9,29.80,West,277,1.0,4.0,47,0.00,,---,0.00,VWS V14.01,2013-05-16 00:22:00,
2013-05-15 20:27:00,79.6,58.2,29.80,WSW,255,0.0,4.0,48,0.00,,---,0.00,VWS V14.01,2013-05-16 00:27:00,
2013-05-15 20:30:00,79.4,58.0,29.80,West,278,1.0,4.0,48,0.00,,---,0.00,VWS V15.00,2013-05-16 00:30:00,
2013-05-15 20:32:00,79.4,58.0,29.80,ENE,66,1.0,1.0,48,0.00,,---,0.00,VWS V14.01,2013-05-16 00:32:00,
2013-05-15 20:37:00,79.0,57.7,29.80,WNW,285,0.0,1.0,48,0.00,,---,0.00,VWS V14.01,2013-05-16 00:37:00,
2013-05-15 20:42:00,78.6,58.4,29.80,NW,304,0.0,2.0,50,0.00,,---,0.00,VWS V14.01,2013-05-16 00:42:00,
2013-05-15 20:48:00,78.4,58.2,29.80,WNW,287,0.0,4.0,50,0.00,,---,0.00,VWS V14.01,2013-05-16 00:48:00,
2013-05-15 20:53:00,78.0,58.4,29.80,WNW,293,0.0,4.0,51,0.00,,---,0.00,VWS V14.01,2013-05-16 00:53:00,
2013-05-15 20:58:00,77.8,57.7,29.80,SW,235,2.0,4.0,50,0.00,,---,0.00,VWS V14.01,2013-05-16 00:58:00,
2013-05-15 21:00:00,77.8,57.7,29.80,WNW,287,1.0,4.0,50,0.00,,---,0.00,VWS V15.00,2013-05-16 01:00:00,
2013-05-15 21:03:00,77.8,57.7,29.80,West,259,1.0,2.0,50,0.00,,---,0.00,VWS V14.01,2013-05-16 01:03:00,
2013-05-15 21:08:00,77.5,58.0,29.80,West,281,0.0,2.0,51,0.00,,---,0.00,VWS V14.01,2013-05-16 01:08:00,
2013-05-15 21:13:00,77.4,57.9,29.81,North,11,1.0,3.0,51,0.00,,---,0.00,VWS V14.01,2013-05-16 01:13:00,
2013-05-15 21:18:00,77.3,57.8,29.81,WNW,295,0.0,3.0,51,0.00,,---,0.00,VWS V14.01,2013-05-16 01:18:00,
2013-05-15 21:23:00,77.2,57.7,29.81,West,269,0.0,3.0,51,0.00,,---,0.00,VWS V14.01,2013-05-16 01:23:00,
2013-05-15 21:28:00,76.9,58.0,29.81,West,270,0.0,3.0,52,0.00,,---,0.00,VWS V14.01,2013-05-16 01:28:00,
2013-05-15 21:30:00,76.8,57.3,29.81,West,280,1.0,3.0,51,0.00,,---,0.00,VWS V15.00,2013-05-16 01:30:00,
2013-05-15 21:34:00,76.8,57.3,29.81,West,267,0.0,1.0,51,0.00,,---,0.00,VWS V14.01,2013-05-16 01:34:00,
2013-05-15 21:39:00,76.6,57.7,29.81,WNW,285,0.0,1.0,52,0.00,,---,0.00,VWS V14.01,2013-05-16 01:39:00,
2013-05-15 21:44:00,76.3,57.9,29.81,WNW,285,1.0,2.0,53,0.00,,---,0.00,VWS V14.01,2013-05-16 01:44:00,
2013-05-15 21:49:00,76.2,57.3,29.82,SW,235,0.0,3.0,52,0.00,,---,0.00,VWS V14.01,2013-05-16 01:49:00,
2013-05-15 21:55:00,76.1,57.8,29.82,NNW,338,2.0,3.0,53,0.00,,---,0.00,VWS V14.01,2013-05-16 01:55:00,
2013-05-15 22:00:00,76.1,57.8,29.82,West,269,0.0,3.0,53,0.00,,---,0.00,VWS V14.01,2013-05-16 02:00:00,
2013-05-15 22:05:00,75.8,57.5,29.82,West,270,0.0,1.0,53,0.00,,---,0.00,VWS V14.01,2013-05-16 02:05:00,
2013-05-15 22:10:00,75.4,57.6,29.82,West,278,1.0,2.0,54,0.00,,---,0.00,VWS V14.01,2013-05-16 02:10:00,
2013-05-15 22:15:00,75.3,57.5,29.82,West,269,0.0,2.0,54,0.00,,---,0.00,VWS V14.01,2013-05-16 02:15:00,
2013-05-15 22:20:00,75.2,57.4,29.82,West,269,0.0,2.0,54,0.00,,---,0.00,VWS V14.01,2013-05-16 02:20:00,
2013-05-15 22:26:00,75.0,57.8,29.82,West,281,0.0,2.0,55,0.00,,---,0.00,VWS V14.01,2013-05-16 02:26:00,
2013-05-15 22:30:00,74.8,58.1,29.82,WSW,255,0.0,2.0,56,0.00,,---,0.00,VWS V15.00,2013-05-16 02:30:00,
2013-05-15 22:31:00,74.8,57.6,29.82,WSW,255,1.0,2.0,55,0.00,,---,0.00,VWS V14.01,2013-05-16 02:31:00,
2013-05-15 22:37:00,74.6,57.4,29.83,NW,312,2.0,2.0,55,0.00,,---,0.00,VWS V14.01,2013-05-16 02:37:00,
2013-05-15 22:42:00,74.6,57.9,29.83,WNW,287,1.0,4.0,56,0.00,,---,0.00,VWS V14.01,2013-05-16 02:42:00,
2013-05-15 22:47:00,74.6,57.9,29.82,WSW,254,1.0,4.0,56,0.00,,---,0.00,VWS V14.01,2013-05-16 02:47:00,
2013-05-15 22:52:00,74.6,57.9,29.82,West,262,1.0,4.0,56,0.00,,---,0.00,VWS V14.01,2013-05-16 02:52:00,
2013-05-15 22:57:00,74.6,57.9,29.82,WNW,290,0.0,4.0,56,0.00,,---,0.00,VWS V14.01,2013-05-16 02:57:00,
2013-05-15 23:00:00,74.7,58.0,29.82,WSW,256,2.0,4.0,56,0.00,,---,0.00,VWS V15.00,2013-05-16 03:00:00,
2013-05-15 23:02:00,74.7,58.0,29.82,NW,312,1.0,3.0,56,0.00,,---,0.00,VWS V14.01,2013-05-16 03:02:00,
2013-05-15 23:07:00,74.6,57.9,29.82,West,280,2.0,5.0,56,0.00,,---,0.00,VWS V14.01,2013-05-16 03:07:00,
2013-05-15 23:12:00,74.6,58.4,29.82,WNW,288,3.0,5.0,57,0.00,,---,0.00,VWS V14.01,2013-05-16 03:12:00,
2013-05-15 23:18:00,74.6,57.9,29.82,ENE,65,1.0,5.0,56,0.00,,---,0.00,VWS V14.01,2013-05-16 03:18:00,
2013-05-15 23:23:00,74.7,58.0,29.82,SW,233,1.0,5.0,56,0.00,,---,0.00,VWS V14.01,2013-05-16 03:23:00,
2013-05-15 23:28:00,74.4,57.7,29.81,WNW,287,2.0,5.0,56,0.00,,---,0.00,VWS V14.01,2013-05-16 03:28:00,
2013-05-15 23:30:00,74.4,57.7,29.81,West,273,0.0,5.0,56,0.00,,---,0.00,VWS V15.00,2013-05-16 03:30:00,
2013-05-15 23:33:00,74.3,57.6,29.81,West,263,0.0,2.0,56,0.00,,---,0.00,VWS V14.01,2013-05-16 03:33:00,
2013-05-15 23:38:00,74.2,57.5,29.81,West,269,0.0,4.0,56,0.00,,---,0.00,VWS V14.01,2013-05-16 03:38:00,
2013-05-15 23:44:00,74.0,57.3,29.81,WSW,253,1.0,5.0,56,0.00,,---,0.00,VWS V14.01,2013-05-16 03:44:00,
2013-05-15 23:49:00,73.9,57.7,29.81,WSW,249,0.0,5.0,57,0.00,,---,0.00,VWS V14.01,2013-05-16 03:49:00,
2013-05-15 23:54:00,73.7,57.5,29.81,North,349,1.0,5.0,57,0.00,,---,0.00,VWS V14.01,2013-05-16 03:54:00,